Regional Weather Roundup
Issued by NWS

Home | Current Version | Previous Version | Text Only | Print | Product List | Glossary On
Versions: 1 2 3 4 5 6 7 8 9 10 11 12 13 14 15 16 17 18 19 20 21 22 23 24 25 26 27 28 29 30 31 32 33 34 35 36 37 38 39 40 41 42 43 44 45 46 47 48 49 50
000
ASUS42 KKEY 290810
RWRKEY

FLORIDA REGIONAL WEATHER ROUNDUP FOR THE FLORIDA KEYS
NATIONAL WEATHER SERVICE KEY WEST FLORIDA
400 AM EDT SUN MAR 29 2015

...SOUTH FLORIDA AND THE KEYS...

CITY           SKY/WX    TMP DP  RH WIND       PRES   REMARKS
FORT MYERS     PTCLDY    56  45  66 N3        30.22F
SW REGIONAL AP PTCLDY    55  45  68 N6        30.23S
NAPLES         MOCLDY    58  45  62 N3        30.21F
MIAMI          CLOUDY    60  43  53 NW6       30.20F
WEST KENDALL   CLOUDY    59  45  59 N7        30.20F
HOMESTEAD      CLOUDY    59  48  67 N10       30.19F
MARATHON       CLOUDY    66  52  60 N13G22    30.18F
BOCA CHICA NAS PTCLDY    68  53  58 N12       30.19S
KEY WEST INTL  CLOUDY    68  55  63 N9        30.19F

...INTERNATIONAL WEATHER...

CITY           SKY/WX    TMP DP  RH WIND       PRES   REMARKS
NASSAU BAHAMAS CLOUDY   N/A N/A N/A N14       30.16S
CANCUN MEXICO  MOCLDY    75  64  69 NE8       30.11F
COZUMEL MEXICO CLOUDY    72  66  83 NE8G20    30.11F

ADJACENT COASTAL WATERS...

STATION/POSITION TIME  SKY/WX   TEMP    WIND        PRES    WAVE
                                AIR SEA DIR/SP/G            HT/PER
                 (UTC)          (F)     (DEG/KT/KT) (MB)    (FT/S)
PULASKI SHOAL LI 0700            68      30/ 16/ 19 1022.9F
SAND KEY         0750            69      10/ 18/ 22 1022.1F
SOMBRERO KEY     0800            67      20/ 18/ 20 1022.2F
LONG KEY         0800            65 74   10/ 19/ 21 1022.8F
MOLASSES REEF    0800            64 76  360/ 20/ 22 1021.5F
FOWEY ROCKS      NOT AVBL

$$


USA.gov is the U.S. government's official web portal to all federal, state and local government web resources and services.